[[{"header":{"parameterUnit":"m.s-1","parameterCategory":1,"la1":30.2991,"la2":30.254,"lo1":-89.0895,"lo2":-89.0444,"dy":0.0017,"dx":0.0017,"nx":28,"ny":28,"refTime":"2023-11-03T09:00:00:Z","depth":0,"parameterNumber":2,"parameterNumberName":"U-component_of_WINDS"},"data":[0,0,0,0,0,0,0,0,0,0,0,0,0,0,0,0,0,0,0,0,0,0,0,0,0,0,0,0,0,0,0,0,0,0,0,0,0,0,0,0,0,0,0,0,0,0,0,0,0,0,0,0,0,0,0,0,0,0,-0.4595,-0.4596,0,-0.4693,-0.4694,-0.4695,-0.4705,-0.4704,-0.4703,-0.4702,-0.4804,-0.4807,-0.4811,0,0,0,0,0,0,0,0,0,0,0,0,0,-0.4419,-0.4422,-0.4595,-0.4596,-0.4598,-0.4693,-0.4694,-0.4695,-0.4705,-0.4704,-0.4703,-0.4701,-0.4803,-0.4807,-0.4811,0,0,0,0,0,0,0,0,0,0,0,0,0,-0.4504,-0.4423,-0.4595,-0.4614,-0.4616,-0.4692,-0.4694,-0.4696,-0.4705,-0.4704,-0.4702,-0.4701,-0.4801,-0.4807,-0.4812,-0.4876,0,0,-0.4829,-0.4831,0,0,0,0,0,0,0,0,-0.4499,-0.4511,-0.461,-0.4613,-0.4616,-0.4685,-0.4669,-0.4756,-0.4706,-0.4672,-0.4702,-0.47,-0.4766,-0.4774,-0.4796,-0.4881,-0.4886,-0.4829,-0.4833,-0.4835,-0.4836,0,0,0,0,0,0,0,-0.4493,-0.4506,-0.4634,-0.4611,-0.4615,-0.4618,-0.4629,-0.4686,-0.4726,-0.4675,-0.4675,-0.4687,-0.4767,-0.479,-0.4798,-0.4887,-0.4829,-0.4834,-0.4837,-0.4839,-0.5031,-0.5033,0,0,0,0,0,0,-0.4484,-0.4501,-0.4631,-0.4637,-0.4553,-0.4623,-0.4634,-0.4664,-0.4725,-0.4733,-0.4688,-0.4687,-0.4782,-0.4792,-0.4802,-0.4882,-0.4835,-0.484,-0.4843,-0.5029,-0.5031,-0.5033,0,0,0,0,0,0,-0.448,-0.4495,-0.4627,-0.4569,-0.4586,-0.4627,-0.4661,-0.4667,-0.4691,-0.4736,-0.4743,-0.4704,-0.4781,-0.4794,-0.4858,-0.4885,-0.4842,-0.4847,-0.5027,-0.503,-0.5032,-0.5041,0,0,0,0,0,0,-0.4475,-0.4494,-0.4518,-0.457,-0.4589,-0.4681,-0.4663,-0.467,-0.47,-0.4699,-0.4753,-0.476,-0.4781,-0.485,-0.4863,-0.4892,-0.4852,-0.5025,-0.5028,-0.5032,-0.5039,-0.5044,-0.5048,0,0,0,0,0,-0.4468,-0.4517,-0.4519,-0.4535,-0.4621,-0.4682,-0.4693,-0.4715,-0.4702,-0.4727,-0.4756,-0.4759,-0.488,-0.4856,-0.4872,-0.4902,-0.5023,-0.5027,-0.5031,-0.5037,-0.5043,-0.5048,0,0,0,0,0,0,-0.4468,-0.4524,-0.4527,-0.4594,-0.4633,-0.4684,-0.4716,-0.4721,-0.4766,-0.4763,-0.4789,-0.4801,-0.4864,-0.489,-0.4862,-0.4968,-0.495,-0.4958,-0.4949,-0.4956,-0.496,-0.4953,-0.4856,0,0,0,0,0,-0.4475,-0.452,-0.4567,-0.4621,-0.464,-0.4675,-0.4702,-0.4716,-0.4758,-0.4775,-0.4808,-0.485,-0.4897,-0.4928,-0.4974,-0.5043,-0.5055,-0.5072,-0.5076,-0.508,-0.5086,-0.5125,-0.5133,-0.5047,-0.5047,-0.5046,0,0,-0.4491,-0.4527,-0.4554,-0.4622,-0.4654,-0.47,-0.4689,-0.4738,-0.4773,-0.4782,-0.4844,-0.4871,-0.4918,-0.4985,-0.5016,-0.5008,-0.5113,-0.5085,-0.5088,-0.5092,-0.513,-0.5138,-0.5145,-0.5049,-0.5049,-0.5048,0,0,-0.4544,-0.4576,-0.4624,-0.4657,-0.4705,-0.4728,-0.474,-0.479,-0.4807,-0.487,-0.4878,-0.492,-0.5002,-0.5035,-0.5063,-0.5129,-0.5134,-0.5144,-0.5169,-0.5206,-0.5213,-0.5219,-0.5243,-0.5251,-0.515,-0.515,-0.515,0,-0.4558,-0.4627,-0.4649,-0.4698,-0.4728,-0.4739,-0.4789,-0.4819,-0.488,-0.4901,-0.4891,-0.4994,-0.5027,-0.5101,-0.5118,-0.514,-0.5154,-0.5138,-0.521,-0.5217,-0.5223,-0.5246,-0.5255,-0.5151,-0.5151,-0.515,-0.515,0,-0.4642,-0.469,-0.4724,-0.4782,-0.4816,-0.4865,-0.4895,-0.4927,-0.4938,-0.4962,-0.5026,-0.5066,-0.512,-0.5139,-0.515,-0.5216,-0.521,-0.5205,-0.5187,-0.5232,-0.5254,-0.5263,-0.5152,-0.5152,-0.5151,-0.5151,0,0,-0.4696,-0.4766,-0.4778,-0.4805,-0.486,-0.4898,-0.4948,-0.5001,-0.5028,-0.507,-0.5113,-0.5182,-0.5178,-0.521,-0.5225,-0.5258,-0.5308,-0.5249,-0.5251,-0.5259,-0.5383,-0.5386,-0.5396,-0.5311,-0.5313,-0.5314,-0.5379,0,-0.4755,-0.4844,-0.4866,-0.4942,-0.4987,-0.4998,-0.5042,-0.5081,-0.5105,-0.5147,-0.5174,-0.5222,-0.5213,-0.5232,-0.5265,-0.5295,-0.5333,-0.5291,-0.5352,-0.5354,-0.5339,-0.5407,-0.541,-0.5469,-0.5388,-0.5389,-0.539,0,-0.4835,-0.4879,-0.4959,-0.5009,-0.5028,-0.5067,-0.5118,-0.5158,-0.5202,-0.5218,-0.5253,-0.5265,-0.5319,-0.5299,-0.5373,-0.5344,-0.537,-0.5389,-0.5392,-0.5398,-0.5374,-0.5415,-0.5488,-0.5497,-0.5404,-0.5403,-0.5402,0,-0.4867,-0.4946,-0.5004,-0.5027,-0.5086,-0.5113,-0.5139,-0.5182,-0.5212,-0.5257,-0.5277,-0.5328,-0.5355,-0.5394,-0.542,-0.5403,-0.5492,-0.5474,-0.5507,-0.5506,-0.5525,-0.5523,-0.5603,-0.5542,-0.5542,-0.5542,-0.5542,0,-0.493,-0.4979,-0.5019,-0.5055,-0.511,-0.5136,-0.519,-0.5216,-0.5255,-0.5296,-0.531,-0.5349,-0.538,-0.5424,-0.5445,-0.5503,-0.5516,-0.553,-0.5535,-0.5529,-0.5527,-0.5546,-0.5542,-0.5544,-0.5544,-0.5543,-0.5543,0,-0.4974,-0.5003,-0.5067,-0.5118,-0.5132,-0.5171,-0.5214,-0.525,-0.5275,-0.5327,-0.5341,-0.538,-0.5432,-0.5462,-0.5528,-0.5541,-0.5607,-0.561,-0.5591,-0.5593,-0.5624,-0.5621,-0.5719,-0.5733,-0.5663,-0.5664,-0.5664,0,-0.5012,-0.505,-0.5105,-0.5133,-0.516,-0.5206,-0.5237,-0.5264,-0.5296,-0.535,-0.5379,-0.5432,-0.5476,-0.5559,-0.5593,-0.5644,-0.5648,-0.5679,-0.5655,-0.5648,-0.5648,-0.5645,-0.5649,-0.5683,-0.5683,-0.5684,-0.5684,0,-0.5077,-0.5089,-0.5134,-0.5183,-0.522,-0.5261,-0.5301,-0.5324,-0.5357,-0.5393,-0.5446,-0.548,-0.5547,-0.56,-0.5653,-0.5681,-0.5688,-0.5691,-0.5701,-0.5695,-0.5683,-0.569,-0.5602,-0.5689,-0.5688,-0.5688,-0.5688,-0.5688,-0.5119,-0.5153,-0.5197,-0.5246,-0.5279,-0.5317,-0.5353,-0.5382,-0.5427,-0.5483,-0.5496,-0.5552,-0.5597,-0.5669,-0.5698,-0.5743,-0.5738,-0.5752,-0.5756,-0.5759,-0.576,-0.5676,-0.5753,-0.5753,-0.5753,-0.5753,-0.5753,0,-0.5184,-0.5213,-0.5258,-0.5314,-0.5352,-0.5356,-0.5401,-0.5433,-0.5482,-0.5523,-0.5566,-0.5627,-0.5678,-0.5717,-0.577,-0.5798,-0.5803,-0.5811,-0.5809,-0.5815,-0.5762,-0.5748,-0.5806,-0.5806,-0.5806,-0.5806,-0.5806,-0.5806,-0.5222,-0.528,-0.5298,-0.5374,-0.5403,-0.5457,-0.5483,-0.5517,-0.555,-0.5618,-0.566,-0.5685,-0.5725,-0.5781,-0.5828,-0.5838,-0.5857,-0.5864,-0.5875,-0.5825,-0.5819,-0.5813,-0.58,-0.5868,-0.5868,-0.5924,-0.5925,-0.5925]},{"header":{"parameterUnit":"m.s-1","parameterCategory":1,"la1":30.2991,"la2":30.254,"lo1":-89.0895,"lo2":-89.0444,"dy":0.0017,"dx":0.0017,"nx":28,"ny":28,"refTime":"2023-11-03T09:00:00:Z","depth":0,"parameterNumber":3,"parameterNumberName":"V-component_of_WINDS"},"data":[0,0,0,0,0,0,0,0,0,0,0,0,0,0,0,0,0,0,0,0,0,0,0,0,0,0,0,0,0,0,0,0,0,0,0,0,0,0,0,0,0,0,0,0,0,0,0,0,0,0,0,0,0,0,0,0,0,0,-2.6758,-2.6758,0,-2.6815,-2.6815,-2.6816,-2.6793,-2.6792,-2.679,-2.6789,-2.6844,-2.6847,-2.685,0,0,0,0,0,0,0,0,0,0,0,0,0,-2.6626,-2.6628,-2.6758,-2.6758,-2.6759,-2.6815,-2.6815,-2.6816,-2.6793,-2.6791,-2.679,-2.6788,-2.6843,-2.6847,-2.685,0,0,0,0,0,0,0,0,0,0,0,0,0,-2.6683,-2.6629,-2.6757,-2.6754,-2.6755,-2.6814,-2.6815,-2.6816,-2.6793,-2.6791,-2.6789,-2.6788,-2.6842,-2.6846,-2.685,-2.6916,0,0,-2.6863,-2.6865,0,0,0,0,0,0,0,0,-2.668,-2.6688,-2.6754,-2.6755,-2.6755,-2.6795,-2.6789,-2.685,-2.6794,-2.6779,-2.6789,-2.6787,-2.6829,-2.6834,-2.6849,-2.6918,-2.6921,-2.6863,-2.6866,-2.6867,-2.6869,0,0,0,0,0,0,0,-2.6676,-2.6685,-2.678,-2.6755,-2.6756,-2.6749,-2.6755,-2.68,-2.6814,-2.678,-2.6778,-2.6785,-2.6829,-2.6845,-2.685,-2.6921,-2.6863,-2.6867,-2.6869,-2.6871,-2.7047,-2.7049,0,0,0,0,0,0,-2.6672,-2.6682,-2.6778,-2.6782,-2.6712,-2.6753,-2.676,-2.6784,-2.6814,-2.6817,-2.6787,-2.6784,-2.6839,-2.6846,-2.6852,-2.6931,-2.6867,-2.6871,-2.6874,-2.7045,-2.7047,-2.705,0,0,0,0,0,0,-2.6669,-2.6681,-2.6776,-2.6732,-2.6743,-2.6758,-2.6785,-2.6786,-2.6802,-2.6819,-2.6821,-2.6802,-2.6838,-2.6846,-2.69,-2.6932,-2.6873,-2.6877,-2.7042,-2.7045,-2.7048,-2.7089,0,0,0,0,0,0,-2.6666,-2.668,-2.6706,-2.6732,-2.6746,-2.6824,-2.6787,-2.6789,-2.681,-2.6807,-2.6833,-2.6836,-2.6837,-2.6894,-2.6904,-2.6937,-2.688,-2.7039,-2.7043,-2.7047,-2.7084,-2.7093,-2.71,0,0,0,0,0,-2.6661,-2.6714,-2.6707,-2.6719,-2.6778,-2.6826,-2.6834,-2.6835,-2.6813,-2.6838,-2.6849,-2.6835,-2.6927,-2.69,-2.6911,-2.6945,-2.7037,-2.7042,-2.7047,-2.7081,-2.7091,-2.71,0,0,0,0,0,0,-2.669,-2.6718,-2.671,-2.6774,-2.6798,-2.6822,-2.6854,-2.6846,-2.6876,-2.6871,-2.687,-2.6877,-2.6932,-2.6944,-2.6913,-2.701,-2.6979,-2.6986,-2.7001,-2.7011,-2.7018,-2.7014,-2.6883,0,0,0,0,0,-2.6704,-2.6742,-2.6763,-2.6817,-2.683,-2.684,-2.6861,-2.686,-2.6884,-2.6894,-2.6909,-2.6932,-2.6966,-2.6989,-2.7021,-2.7086,-2.7091,-2.7115,-2.7123,-2.7129,-2.7135,-2.717,-2.7181,-2.7066,-2.7066,-2.7066,0,0,-2.6733,-2.6753,-2.6776,-2.6823,-2.6842,-2.688,-2.6849,-2.689,-2.6918,-2.69,-2.6952,-2.6964,-2.699,-2.7049,-2.7076,-2.7061,-2.7168,-2.7135,-2.714,-2.7143,-2.7176,-2.7187,-2.7197,-2.7069,-2.7069,-2.7068,0,0,-2.6805,-2.6824,-2.6871,-2.6891,-2.6919,-2.6926,-2.6937,-2.6963,-2.697,-2.7023,-2.701,-2.7042,-2.7102,-2.7121,-2.7138,-2.7218,-2.7206,-2.7228,-2.7269,-2.7303,-2.7312,-2.732,-2.7348,-2.7358,-2.7234,-2.7234,-2.7234,0,-2.6837,-2.6895,-2.6896,-2.6939,-2.696,-2.6946,-2.6993,-2.7012,-2.7049,-2.7064,-2.7046,-2.712,-2.7136,-2.72,-2.722,-2.7234,-2.7247,-2.7225,-2.7311,-2.7319,-2.7326,-2.7353,-2.7364,-2.7237,-2.7237,-2.7236,-2.7236,0,-2.6933,-2.6973,-2.7008,-2.7046,-2.707,-2.7115,-2.7122,-2.7146,-2.7143,-2.7151,-2.7204,-2.7224,-2.726,-2.7275,-2.7271,-2.7338,-2.7328,-2.7311,-2.7279,-2.734,-2.7365,-2.7375,-2.7241,-2.724,-2.7239,-2.7238,0,0,-2.7026,-2.7064,-2.7076,-2.7093,-2.7124,-2.7155,-2.7198,-2.7235,-2.7256,-2.7282,-2.7318,-2.7368,-2.7353,-2.7373,-2.7371,-2.7401,-2.7463,-2.738,-2.738,-2.7395,-2.7537,-2.755,-2.7562,-2.7455,-2.7457,-2.7458,-2.7535,0,-2.71,-2.7179,-2.7181,-2.7252,-2.7289,-2.7276,-2.7314,-2.7336,-2.7345,-2.7377,-2.7385,-2.7421,-2.7398,-2.741,-2.7439,-2.7449,-2.7491,-2.7443,-2.7488,-2.749,-2.7482,-2.7575,-2.7589,-2.7661,-2.7545,-2.7546,-2.7548,0,-2.7199,-2.7229,-2.7304,-2.733,-2.7345,-2.738,-2.7413,-2.7444,-2.7468,-2.7472,-2.7495,-2.7489,-2.7532,-2.7499,-2.7559,-2.7527,-2.7545,-2.7552,-2.7555,-2.756,-2.7523,-2.7583,-2.7684,-2.7694,-2.7563,-2.7562,-2.7561,0,-2.7259,-2.7318,-2.7371,-2.7386,-2.7417,-2.7441,-2.7455,-2.7478,-2.75,-2.7528,-2.7542,-2.7575,-2.7593,-2.7619,-2.7621,-2.7597,-2.7682,-2.7649,-2.7686,-2.7686,-2.7704,-2.7703,-2.781,-2.7716,-2.7716,-2.7715,-2.7715,0,-2.7343,-2.7389,-2.7399,-2.7431,-2.7483,-2.7484,-2.7535,-2.7546,-2.7567,-2.76,-2.7591,-2.7622,-2.7624,-2.7656,-2.7658,-2.7707,-2.7716,-2.772,-2.772,-2.7721,-2.772,-2.7733,-2.7728,-2.7718,-2.7718,-2.7717,-2.7716,0,-2.7419,-2.7427,-2.7484,-2.7509,-2.7516,-2.7553,-2.7574,-2.7604,-2.7612,-2.7655,-2.7665,-2.7676,-2.7713,-2.7719,-2.7762,-2.7764,-2.7823,-2.7817,-2.7815,-2.7814,-2.7851,-2.7848,-2.797,-2.7986,-2.7881,-2.7882,-2.7883,0,-2.7472,-2.7508,-2.7537,-2.7559,-2.7575,-2.7611,-2.7633,-2.7635,-2.7659,-2.769,-2.7716,-2.7753,-2.7782,-2.7842,-2.7854,-2.7887,-2.7883,-2.7923,-2.7887,-2.7887,-2.7883,-2.7882,-2.7885,-2.793,-2.7931,-2.7932,-2.7933,0,-2.7566,-2.7568,-2.7601,-2.7636,-2.7663,-2.7691,-2.7716,-2.7735,-2.774,-2.7766,-2.7805,-2.7828,-2.7873,-2.7909,-2.7942,-2.7955,-2.7945,-2.7944,-2.7954,-2.7956,-2.7954,-2.7956,-2.7834,-2.7941,-2.7941,-2.794,-2.7939,-2.7939,-2.7633,-2.7664,-2.7689,-2.7726,-2.7746,-2.777,-2.78,-2.7811,-2.7844,-2.7882,-2.788,-2.7923,-2.7946,-2.7989,-2.8004,-2.8037,-2.8023,-2.8038,-2.8042,-2.8046,-2.805,-2.7948,-2.8042,-2.8042,-2.8042,-2.8042,-2.8042,0,-2.7726,-2.7742,-2.7776,-2.7812,-2.7842,-2.783,-2.7858,-2.7883,-2.7921,-2.7943,-2.7973,-2.8017,-2.8052,-2.8066,-2.8101,-2.8124,-2.812,-2.8133,-2.8131,-2.8134,-2.806,-2.8047,-2.8135,-2.8135,-2.8135,-2.8135,-2.8135,-2.8135,-2.7778,-2.7831,-2.7836,-2.7897,-2.7912,-2.7955,-2.7971,-2.7993,-2.8011,-2.8062,-2.8091,-2.8101,-2.812,-2.8155,-2.8187,-2.819,-2.8203,-2.8218,-2.8219,-2.8149,-2.814,-2.8131,-2.8119,-2.822,-2.8221,-2.8291,-2.8292,-2.8292]}]]